QPF
0.26 0.33 0.35 0.35 0.37 0.29 0.19 0.12 0.07 0.06 0.05 0.02 0.01 0.01 0.00 0.00 0.00 0.00 0.00 0.00 0.00 0.00 0.00 0.00 0.00 0.00 0.00 0.00 0.00 0.00 0.00 0.00 0.00 0.00 0.00 0.00 0.00 0.00 0.00 0.00 0.01 0.01 0.02
0.20 0.29 0.35 0.38 0.34 0.26 0.17 0.12 0.08 0.04 0.03 0.01 0.01 0.00 0.00 0.00 0.00 0.00 0.00 0.00 0.00 0.00 0.00 0.00 0.00 0.00 0.00 0.00 0.00 0.00 0.00 0.00 0.00 0.00 0.00 0.00 0.00 0.00 0.00 0.00 0.00 0.00 0.01
0.13 0.20 0.26 0.31 0.28 0.20 0.13 0.11 0.09 0.04 0.02 0.01 0.01 0.00 0.00 0.00 0.00 0.00 0.00 0.00 0.00 0.00 0.00 0.00 0.00 0.00 0.00 0.00 0.00 0.00 0.00 0.00 0.00 0.00 0.00 0.00 0.00 0.00 0.00 0.00 0.00 0.00 0.01
0.08 0.16 0.20 0.21 0.21 0.17 0.12 0.10 0.06 0.03 0.01 0.00 0.00 0.00 0.00 0.00 0.00 0.00 0.00 0.00 0.00 0.00 0.00 0.00 0.00 0.00 0.00 0.00 0.00 0.00 0.00 0.00 0.00 0.00 0.00 0.00 0.00 0.00 0.00 0.00 0.00 0.00 0.00
0.05 0.08 0.12 0.10 0.09 0.07 0.08 0.07 0.04 0.01 0.01 0.00 0.00 0.00 0.00 0.00 0.00 0.00 0.00 0.00 0.00 0.00 0.00 0.00 0.00 0.00 0.00 0.00 0.00 0.00 0.00 0.00 0.00 0.00 0.00 0.00 0.00 0.00 0.00 0.00 0.00 0.00 0.00
0.02 0.03 0.05 0.03 0.03 0.02 0.03 0.03 0.02 0.01 0.00 0.00 0.00 0.00 0.00 0.00 0.00 0.00 0.00 0.00 0.00 0.00 0.00 0.00 0.00 0.00 0.00 0.00 0.00 0.00 0.00 0.00 0.00 0.00 0.00 0.00 0.00 0.00 0.00 0.00 0.00 0.00 0.00
0.01 0.01 0.01 0.00 0.01 0.01 0.01 0.01 0.01 0.00 0.00 0.00 0.00 0.00 0.00 0.00 0.00 0.00 0.00 0.00 0.00 0.00 0.00 0.00 0.00 0.00 0.00 0.00 0.00 0.00 0.00 0.00 0.00 0.00 0.00 0.00 0.00 0.00 0.00 0.00 0.00 0.00 0.00
0.00 0.00 0.00 0.00 0.00 0.00 0.00 0.00 0.00 0.00 0.00 0.00 0.00 0.00 0.00 0.00 0.00 0.00 0.00 0.00 0.00 0.00 0.00 0.00 0.00 0.00 0.00 0.00 0.00 0.00 0.00 0.00 0.00 0.00 0.00 0.00 0.00 0.00 0.00 0.00 0.00 0.00 0.00
0.00 0.00 0.00 0.00 0.00 0.00 0.00 0.00 0.00 0.00 0.00 0.00 0.00 0.00 0.00 0.00 0.00 0.00 0.00 0.00 0.00 0.00 0.00 0.00 0.00 0.00 0.00 0.00 0.00 0.00 0.00 0.00 0.00 0.00 0.00 0.00 0.00 0.00 0.00 0.00 0.00 0.00 0.00
0.00 0.00 0.00 0.00 0.00 0.00 0.00 0.00 0.00 0.00 0.00 0.00 0.00 0.00 0.00 0.00 0.00 0.00 0.00 0.00 0.00 0.00 0.00 0.00 0.00 0.00 0.00 0.00 0.00 0.00 0.00 0.00 0.00 0.00 0.00 0.00 0.00 0.00 0.00 0.00 0.00 0.00 0.00
0.00 0.00 0.00 0.00 0.00 0.00 0.00 0.00 0.00 0.00 0.00 0.00 0.00 0.00 0.00 0.00 0.00 0.00 0.00 0.00 0.00 0.00 0.00 0.00 0.00 0.00 0.00 0.00 0.00 0.00 0.00 0.00 0.00 0.00 0.00 0.00 0.00 0.00 0.00 0.00 0.00 0.00 0.00
0.00 0.00 0.00 0.00 0.00 0.00 0.00 0.00 0.00 0.00 0.00 0.00 0.00 0.00 0.00 0.00 0.00 0.00 0.00 0.00 0.00 0.00 0.00 0.00 0.00 0.00 0.00 0.00 0.00 0.00 0.00 0.00 0.00 0.00 0.00 0.00 0.00 0.00 0.00 0.00 0.00 0.00 0.00
0.00 0.00 0.00 0.00 0.00 0.00 0.00 0.00 0.00 0.00 0.00 0.00 0.00 0.00 0.00 0.00 0.00 0.00 0.00 0.00 0.00 0.00 0.00 0.00 0.00 0.00 0.00 0.00 0.00 0.00 0.00 0.00 0.00 0.00 0.00 0.00 0.00 0.00 0.00 0.00 0.00 0.00 0.00
0.00 0.00 0.00 0.00 0.00 0.00 0.00 0.00 0.00 0.00 0.00 0.00 0.00 0.00 0.00 0.00 0.00 0.00 0.00 0.00 0.00 0.00 0.00 0.00 0.00 0.00 0.00 0.00 0.00 0.00 0.00 0.00 0.00 0.00 0.00 0.00 0.00 0.00 0.00 0.00 0.00 0.00 0.00
0.00 0.00 0.00 0.00 0.00 0.00 0.00 0.00 0.00 0.00 0.00 0.00 0.00 0.00 0.00 0.00 0.00 0.00 0.00 0.00 0.00 0.00 0.00 0.00 0.00 0.00 0.00 0.00 0.00 0.00 0.00 0.00 0.00 0.00 0.00 0.00 0.00 0.00 0.00 0.00 0.00 0.00 0.00
0.00 0.00 0.00 0.00 0.00 0.00 0.00 0.00 0.00 0.00 0.00 0.00 0.00 0.00 0.00 0.00 0.00 0.00 0.00 0.00 0.00 0.00 0.00 0.00 0.00 0.00 0.00 0.00 0.00 0.00 0.00 0.00 0.00 0.00 0.00 0.00 0.00 0.00 0.00 0.00 0.00 0.00 0.00
0.00 0.01 0.01 0.01 0.01 0.00 0.00 0.00 0.00 0.01 0.00 0.00 0.00 0.00 0.00 0.00 0.00 0.00 0.00 0.00 0.00 0.00 0.00 0.00 0.00 0.00 0.00 0.00 0.00 0.00 0.00 0.00 0.00 0.00 0.00 0.00 0.00 0.00 0.00 0.00 0.00 0.00 0.00
0.02 0.02 0.02 0.02 0.01 0.01 0.01 0.01 0.01 0.01 0.00 0.00 0.00 0.00 0.00 0.00 0.00 0.00 0.00 0.00 0.00 0.00 0.00 0.00 0.00 0.00 0.00 0.00 0.00 0.00 0.00 0.00 0.00 0.00 0.00 0.00 0.00 0.00 0.00 0.00 0.00 0.00 0.00
0.03 0.03 0.03 0.02 0.02 0.01 0.01 0.01 0.01 0.01 0.01 0.01 0.01 0.01 0.01 0.00 0.00 0.00 0.01 0.01 0.00 0.00 0.00 0.00 0.00 0.00 0.00 0.00 0.00 0.00 0.00 0.00 0.00 0.00 0.00 0.00 0.00 0.00 0.00 0.00 0.00 0.00 0.00
0.03 0.03 0.03 0.03 0.02 0.02 0.02 0.02 0.02 0.02 0.02 0.02 0.02 0.02 0.01 0.01 0.01 0.01 0.01 0.01 0.01 0.01 0.01 0.01 0.01 0.01 0.00 0.00 0.00 0.00 0.00 0.00 0.00 0.00 0.00 0.00 0.00 0.00 0.00 0.00 0.00 0.00 0.00
0.04 0.04 0.03 0.03 0.02 0.03 0.03 0.03 0.03 0.03 0.03 0.03 0.03 0.02 0.02 0.02 0.02 0.02 0.02 0.01 0.01 0.01 0.01 0.00 0.01 0.01 0.01 0.01 0.01 0.00 0.00 0.00 0.00 0.00 0.00 0.00 0.00 0.00 0.00 0.00 0.00 0.00 0.00
0.04 0.04 0.04 0.04 0.03 0.03 0.04 0.04 0.04 0.04 0.04 0.04 0.03 0.03 0.03 0.03 0.03 0.02 0.02 0.02 0.01 0.01 0.01 0.01 0.00 0.00 0.01 0.01 0.01 0.01 0.00 0.00 0.00 0.00 0.00 0.00 0.00 0.00 0.00 0.00 0.00 0.00 0.00
0.03 0.03 0.03 0.04 0.04 0.04 0.04 0.04 0.04 0.04 0.04 0.03 0.03 0.03 0.04 0.04 0.04 0.03 0.03 0.02 0.02 0.01 0.01 0.01 0.01 0.01 0.01 0.01 0.01 0.01 0.01 0.01 0.00 0.00 0.00 0.00 0.00 0.00 0.00 0.00 0.00 0.00 0.00
0.02 0.02 0.03 0.02 0.02 0.02 0.02 0.03 0.03 0.03 0.03 0.02 0.03 0.03 0.04 0.04 0.04 0.04 0.03 0.03 0.02 0.02 0.02 0.02 0.01 0.01 0.01 0.01 0.01 0.01 0.01 0.01 0.01 0.00 0.00 0.00 0.00 0.00 0.00 0.00 0.00 0.00 0.00
0.01 0.01 0.01 0.01 0.01 0.01 0.02 0.02 0.02 0.03 0.03 0.03 0.04 0.04 0.04 0.04 0.04 0.04 0.03 0.02 0.02 0.03 0.02 0.02 0.02 0.02 0.01 0.02 0.02 0.02 0.02 0.02 0.02 0.02 0.01 0.01 0.00 0.00 0.00 0.00 0.00 0.00 0.00
0.00 0.01 0.01 0.01 0.01 0.01 0.01 0.02 0.02 0.02 0.02 0.02 0.02 0.02 0.02 0.02 0.02 0.02 0.02 0.02 0.02 0.02 0.02 0.02 0.02 0.02 0.02 0.02 0.03 0.03 0.03 0.03 0.03 0.02 0.02 0.01 0.01 0.01 0.01 0.00 0.00 0.00 0.00
MSLP
1013.42 1013.69 1013.90 1014.03 1014.09 1014.12 1014.16 1014.28 1014.52 1014.89 1015.37 1015.93 1016.53 1017.09 1017.58 1017.97 1018.25 1018.44 1018.55 1018.63 1018.70 1018.79 1018.89 1019.02 1019.16 1019.29 1019.41 1019.51 1019.59 1019.64 1019.68 1019.69 1019.68 1019.65 1019.58 1019.46 1019.30 1019.10 1018.85 1018.58 1018.31 1018.04 1017.80
1013.42 1013.80 1014.10 1014.29 1014.38 1014.40 1014.42 1014.51 1014.71 1015.05 1015.52 1016.09 1016.68 1017.25 1017.74 1018.11 1018.35 1018.49 1018.56 1018.61 1018.66 1018.75 1018.88 1019.06 1019.25 1019.44 1019.62 1019.75 1019.85 1019.90 1019.93 1019.92 1019.90 1019.87 1019.80 1019.71 1019.59 1019.42 1019.20 1018.95 1018.68 1018.39 1018.12
1013.32 1013.80 1014.19 1014.45 1014.59 1014.63 1014.65 1014.72 1014.91 1015.24 1015.70 1016.26 1016.86 1017.43 1017.90 1018.25 1018.46 1018.56 1018.58 1018.59 1018.62 1018.70 1018.84 1019.04 1019.28 1019.52 1019.74 1019.91 1020.02 1020.09 1020.11 1020.10 1020.09 1020.06 1020.03 1019.98 1019.90 1019.78 1019.61 1019.39 1019.13 1018.84 1018.55
1013.11 1013.68 1014.16 1014.50 1014.69 1014.77 1014.80 1014.87 1015.05 1015.37 1015.83 1016.39 1016.99 1017.56 1018.03 1018.36 1018.54 1018.61 1018.60 1018.57 1018.57 1018.64 1018.78 1019.00 1019.26 1019.53 1019.77 1019.97 1020.10 1020.18 1020.22 1020.22 1020.23 1020.23 1020.23 1020.22 1020.20 1020.13 1020.01 1019.84 1019.61 1019.33 1019.02
1012.82 1013.45 1014.01 1014.42 1014.66 1014.78 1014.84 1014.92 1015.10 1015.41 1015.87 1016.42 1017.02 1017.59 1018.06 1018.39 1018.57 1018.62 1018.60 1018.54 1018.52 1018.57 1018.71 1018.92 1019.19 1019.47 1019.73 1019.94 1020.09 1020.19 1020.24 1020.27 1020.29 1020.33 1020.37 1020.41 1020.43 1020.42 1020.36 1020.22 1020.03 1019.77 1019.46
1012.49 1013.16 1013.77 1014.24 1014.53 1014.69 1014.77 1014.86 1015.03 1015.33 1015.78 1016.33 1016.92 1017.50 1017.98 1018.32 1018.51 1018.57 1018.55 1018.49 1018.46 1018.50 1018.62 1018.82 1019.08 1019.36 1019.62 1019.83 1019.99 1020.10 1020.17 1020.22 1020.27 1020.33 1020.41 1020.49 1020.56 1020.59 1020.57 1020.48 1020.32 1020.08 1019.79
1012.16 1012.86 1013.50 1014.00 1014.33 1014.51 1014.60 1014.69 1014.86 1015.15 1015.57 1016.11 1016.71 1017.28 1017.78 1018.15 1018.37 1018.45 1018.45 1018.41 1018.39 1018.42 1018.52 1018.71 1018.95 1019.20 1019.45 1019.66 1019.82 1019.93 1020.00 1020.07 1020.13 1020.22 1020.32 1020.42 1020.52 1020.59 1020.61 1020.55 1020.43 1020.23 1019.97
1011.87 1012.56 1013.21 1013.73 1014.07 1014.27 1014.37 1014.46 1014.62 1014.89 1015.30 1015.82 1016.41 1016.99 1017.50 1017.90 1018.16 1018.28 1018.32 1018.30 1018.29 1018.32 1018.42 1018.58 1018.79 1019.02 1019.24 1019.43 1019.57 1019.68 1019.75 1019.82 1019.89 1019.98 1020.09 1020.21 1020.33 1020.42 1020.46 1020.44 1020.35 1020.19 1019.96
1011.62 1012.29 1012.92 1013.44 1013.79 1014.00 1014.10 1014.20 1014.35 1014.61 1015.00 1015.50 1016.08 1016.66 1017.19 1017.62 1017.91 1018.08 1018.16 1018.18 1018.19 1018.22 1018.30 1018.44 1018.62 1018.81 1019.00 1019.15 1019.27 1019.36 1019.43 1019.48 1019.55 1019.64 1019.74 1019.86 1019.98 1020.08 1020.14 1020.15 1020.09 1019.98 1019.81
1011.38 1012.02 1012.62 1013.12 1013.47 1013.68 1013.80 1013.91 1014.06 1014.32 1014.71 1015.21 1015.78 1016.36 1016.90 1017.34 1017.67 1017.88 1017.99 1018.04 1018.06 1018.10 1018.18 1018.29 1018.43 1018.59 1018.74 1018.86 1018.95 1019.02 1019.07 1019.11 1019.16 1019.23 1019.33 1019.44 1019.55 1019.65 1019.72 1019.74 1019.72 1019.65 1019.53
1011.13 1011.70 1012.26 1012.73 1013.07 1013.29 1013.44 1013.57 1013.76 1014.05 1014.45 1014.95 1015.51 1016.09 1016.63 1017.09 1017.43 1017.66 1017.80 1017.87 1017.91 1017.96 1018.03 1018.12 1018.24 1018.36 1018.48 1018.57 1018.64 1018.68 1018.71 1018.73 1018.76 1018.82 1018.89 1018.98 1019.08 1019.17 1019.24 1019.28 1019.29 1019.25 1019.18
1010.82 1011.32 1011.82 1012.24 1012.56 1012.80 1012.98 1013.17 1013.41 1013.74 1014.18 1014.70 1015.27 1015.85 1016.38 1016.83 1017.18 1017.42 1017.57 1017.66 1017.71 1017.77 1017.84 1017.93 1018.03 1018.13 1018.23 1018.30 1018.35 1018.37 1018.38 1018.38 1018.40 1018.43 1018.48 1018.55 1018.62 1018.70 1018.76 1018.81 1018.83 1018.82 1018.78
1010.44 1010.85 1011.25 1011.62 1011.92 1012.17 1012.40 1012.65 1012.96 1013.36 1013.85 1014.40 1014.99 1015.57 1016.09 1016.53 1016.87 1017.11 1017.26 1017.36 1017.44 1017.51 1017.59 1017.68 1017.78 1017.89 1017.98 1018.04 1018.08 1018.09 1018.09 1018.08 1018.08 1018.09 1018.12 1018.16 1018.21 1018.26 1018.31 1018.35 1018.36 1018.37 1018.35
1010.02 1010.30 1010.60 1010.88 1011.14 1011.40 1011.68 1012.00 1012.40 1012.87 1013.42 1014.02 1014.62 1015.20 1015.71 1016.13 1016.45 1016.69 1016.85 1016.96 1017.05 1017.15 1017.25 1017.37 1017.49 1017.61 1017.71 1017.78 1017.82 1017.83 1017.82 1017.80 1017.79 1017.78 1017.79 1017.80 1017.83 1017.85 1017.88 1017.89 1017.89 1017.89 1017.87
1009.60 1009.73 1009.90 1010.09 1010.30 1010.55 1010.86 1011.25 1011.72 1012.26 1012.87 1013.50 1014.12 1014.70 1015.19 1015.60 1015.90 1016.13 1016.30 1016.43 1016.55 1016.68 1016.83 1016.98 1017.14 1017.28 1017.40 1017.48 1017.52 1017.54 1017.52 1017.50 1017.48 1017.46 1017.44 1017.44 1017.44 1017.44 1017.44 1017.42 1017.40 1017.37 1017.33
1009.24 1009.22 1009.25 1009.33 1009.48 1009.70 1010.03 1010.45 1010.98 1011.58 1012.22 1012.87 1013.50 1014.06 1014.54 1014.92 1015.22 1015.44 1015.62 1015.79 1015.95 1016.12 1016.31 1016.51 1016.70 1016.87 1017.01 1017.10 1017.15 1017.16 1017.15 1017.12 1017.09 1017.06 1017.04 1017.02 1017.00 1016.99 1016.95 1016.91 1016.85 1016.78 1016.71
1009.03 1008.87 1008.76 1008.73 1008.80 1008.99 1009.30 1009.73 1010.28 1010.89 1011.55 1012.20 1012.81 1013.34 1013.80 1014.16 1014.44 1014.67 1014.87 1015.07 1015.27 1015.50 1015.73 1015.97 1016.19 1016.38 1016.52 1016.62 1016.66 1016.66 1016.64 1016.60 1016.56 1016.53 1016.51 1016.49 1016.47 1016.44 1016.40 1016.33 1016.24 1016.14 1016.03
1009.04 1008.76 1008.54 1008.42 1008.41 1008.54 1008.81 1009.22 1009.74 1010.33 1010.96 1011.57 1012.14 1012.64 1013.05 1013.39 1013.66 1013.90 1014.12 1014.35 1014.59 1014.85 1015.12 1015.38 1015.61 1015.80 1015.93 1016.00 1016.02 1016.00 1015.96 1015.90 1015.86 1015.83 1015.82 1015.82 1015.81 1015.79 1015.75 1015.68 1015.58 1015.45 1015.31
1009.31 1008.96 1008.67 1008.46 1008.38 1008.45 1008.66 1009.01 1009.47 1010.00 1010.56 1011.10 1011.60 1012.04 1012.41 1012.71 1012.97 1013.21 1013.45 1013.70 1013.97 1014.25 1014.53 1014.79 1015.01 1015.16 1015.25 1015.28 1015.25 1015.19 1015.11 1015.04 1014.99 1014.97 1014.98 1015.00 1015.03 1015.04 1015.03 1014.97 1014.87 1014.74 1014.58
1009.83 1009.47 1009.14 1008.89 1008.76 1008.76 1008.90 1009.16 1009.53 1009.96 1010.42 1010.87 1011.28 1011.64 1011.95 1012.21 1012.45 1012.69 1012.93 1013.19 1013.46 1013.74 1014.00 1014.23 1014.40 1014.50 1014.52 1014.48 1014.39 1014.27 1014.15 1014.05 1013.99 1013.98 1014.02 1014.08 1014.15 1014.21 1014.24 1014.21 1014.14 1014.02 1013.85
1010.56 1010.23 1009.91 1009.65 1009.48 1009.43 1009.49 1009.66 1009.92 1010.23 1010.57 1010.90 1011.21 1011.48 1011.72 1011.93 1012.14 1012.36 1012.59 1012.83 1013.09 1013.34 1013.56 1013.73 1013.83 1013.85 1013.78 1013.66 1013.49 1013.30 1013.13 1013.00 1012.93 1012.93 1012.98 1013.09 1013.21 1013.32 1013.40 1013.43 1013.39 1013.30 1013.15
1011.43 1011.16 1010.88 1010.63 1010.45 1010.35 1010.34 1010.42 1010.56 1010.75 1010.96 1011.17 1011.36 1011.54 1011.71 1011.87 1012.03 1012.21 1012.41 1012.63 1012.85 1013.05 1013.20 1013.30 1013.31 1013.23 1013.08 1012.86 1012.60 1012.34 1012.12 1011.95 1011.87 1011.86 1011.94 1012.07 1012.23 1012.40 1012.53 1012.61 1012.62 1012.56 1012.44
1012.32 1012.13 1011.92 1011.70 1011.52 1011.39 1011.32 1011.30 1011.34 1011.41 1011.50 1011.59 1011.68 1011.76 1011.85 1011.95 1012.07 1012.21 1012.36 1012.53 1012.70 1012.83 1012.91 1012.92 1012.84 1012.67 1012.42 1012.12 1011.79 1011.46 1011.19 1010.98 1010.87 1010.85 1010.92 1011.07 1011.25 1011.45 1011.62 1011.74 1011.79 1011.77 1011.69
1013.15 1013.04 1012.89 1012.71 1012.54 1012.38 1012.26 1012.18 1012.12 1012.09 1012.07 1012.06 1012.06 1012.06 1012.08 1012.12 1012.18 1012.27 1012.37 1012.48 1012.57 1012.63 1012.64 1012.56 1012.40 1012.15 1011.83 1011.46 1011.06 1010.68 1010.36 1010.11 1009.96 1009.92 1009.97 1010.10 1010.28 1010.47 1010.66 1010.80 1010.88 1010.90 1010.85
1013.83 1013.78 1013.67 1013.52 1013.36 1013.20 1013.05 1012.91 1012.78 1012.67 1012.58 1012.49 1012.41 1012.35 1012.31 1012.29 1012.29 1012.32 1012.36 1012.40 1012.43 1012.41 1012.34 1012.19 1011.96 1011.65 1011.28 1010.86 1010.42 1010.00 1009.63 1009.34 1009.15 1009.06 1009.06 1009.15 1009.29 1009.47 1009.64 1009.78 1009.88 1009.92 1009.90
1014.29 1014.27 1014.20 1014.07 1013.92 1013.76 1013.59 1013.42 1013.26 1013.10 1012.95 1012.81 1012.68 1012.56 1012.47 1012.39 1012.34 1012.31 1012.28 1012.25 1012.20 1012.12 1011.98 1011.77 1011.49 1011.13 1010.73 1010.28 1009.82 1009.37 1008.98 1008.65 1008.40 1008.25 1008.19 1008.21 1008.30 1008.42 1008.55 1008.68 1008.77 1008.83 1008.84
Thickness
5722 5724 5726 5725 5724 5724 5725 5725 5724 5723 5722 5718 5715 5712 5710 5710 5709 5708 5706 5705 5703 5702 5700 5698 5697 5696 5695 5693 5693 5692 5690 5690 5690 5691 5690 5691 5693 5693 5694 5696 5698 5699 5700
5718 5720 5722 5723 5722 5723 5724 5724 5723 5722 5721 5719 5717 5714 5711 5709 5708 5707 5705 5703 5702 5701 5699 5697 5695 5693 5692 5690 5690 5689 5687 5685 5685 5684 5683 5681 5683 5686 5688 5689 5691 5692 5694
5719 5720 5721 5722 5722 5722 5724 5725 5724 5723 5721 5719 5716 5713 5710 5708 5706 5705 5704 5703 5701 5700 5698 5695 5693 5691 5690 5688 5686 5685 5684 5681 5680 5679 5678 5675 5673 5675 5680 5681 5683 5685 5686
5724 5723 5723 5722 5722 5723 5724 5725 5723 5722 5721 5719 5717 5713 5709 5706 5705 5705 5704 5702 5701 5699 5697 5695 5692 5690 5688 5686 5684 5682 5680 5678 5676 5675 5673 5672 5671 5669 5670 5674 5676 5678 5679
5730 5728 5727 5726 5726 5726 5725 5724 5722 5721 5721 5719 5717 5714 5710 5708 5706 5704 5702 5701 5700 5698 5696 5694 5691 5688 5686 5684 5681 5679 5677 5675 5673 5671 5669 5667 5665 5664 5663 5663 5666 5669 5672
5735 5733 5731 5729 5728 5727 5726 5724 5721 5720 5720 5719 5716 5714 5710 5707 5704 5702 5701 5699 5698 5697 5695 5693 5690 5687 5685 5682 5680 5677 5675 5672 5670 5668 5665 5663 5661 5659 5657 5656 5656 5658 5662
5738 5735 5732 5730 5729 5728 5727 5725 5722 5720 5719 5718 5716 5714 5711 5708 5705 5703 5701 5698 5696 5695 5694 5692 5689 5686 5684 5680 5677 5675 5672 5670 5667 5664 5662 5659 5657 5655 5653 5651 5649 5649 5652
5741 5739 5737 5735 5733 5732 5729 5727 5724 5722 5720 5718 5716 5714 5711 5708 5705 5703 5701 5698 5696 5695 5693 5690 5687 5684 5682 5679 5675 5672 5670 5667 5664 5661 5658 5656 5653 5651 5649 5647 5644 5642 5643
5745 5743 5742 5739 5737 5735 5732 5730 5726 5724 5721 5719 5716 5712 5710 5707 5705 5703 5700 5698 5695 5693 5691 5688 5685 5683 5680 5677 5673 5670 5667 5664 5661 5658 5655 5652 5650 5647 5644 5642 5640 5637 5635
5747 5746 5745 5743 5741 5739 5736 5732 5729 5726 5723 5720 5716 5713 5710 5707 5705 5701 5698 5696 5694 5692 5689 5686 5683 5680 5677 5674 5671 5668 5665 5661 5658 5654 5651 5648 5646 5643 5640 5637 5635 5632 5630
5750 5749 5748 5746 5744 5740 5736 5732 5729 5726 5723 5720 5716 5713 5710 5706 5703 5700 5698 5695 5692 5690 5687 5684 5681 5678 5675 5671 5668 5665 5662 5658 5655 5652 5648 5645 5642 5639 5636 5633 5630 5627 5624
5753 5752 5749 5746 5742 5739 5736 5733 5730 5727 5724 5720 5716 5712 5709 5705 5701 5698 5696 5693 5690 5688 5685 5681 5678 5675 5672 5669 5665 5662 5659 5655 5652 5649 5645 5642 5639 5635 5631 5628 5625 5622 5620
5753 5751 5748 5745 5744 5742 5739 5735 5732 5729 5725 5720 5715 5711 5707 5703 5700 5697 5694 5691 5688 5685 5682 5679 5675 5673 5670 5667 5663 5659 5656 5652 5649 5645 5642 5638 5634 5630 5627 5623 5620 5617 5615
5753 5750 5748 5747 5746 5744 5741 5738 5734 5730 5725 5720 5714 5710 5706 5703 5700 5696 5693 5689 5686 5683 5679 5676 5673 5670 5667 5664 5660 5656 5653 5649 5646 5642 5638 5635 5631 5627 5623 5619 5616 5612 5609
5751 5750 5749 5748 5746 5743 5740 5738 5735 5730 5725 5718 5713 5710 5707 5702 5698 5694 5690 5686 5683 5680 5677 5673 5670 5667 5663 5661 5657 5653 5650 5645 5642 5638 5635 5631 5628 5624 5620 5616 5612 5607 5603
5750 5751 5750 5748 5745 5743 5740 5737 5733 5729 5723 5718 5714 5710 5704 5699 5695 5691 5687 5683 5680 5676 5673 5670 5667 5664 5661 5659 5655 5650 5646 5642 5638 5634 5631 5627 5624 5621 5617 5613 5609 5604 5599
5745 5746 5746 5745 5745 5743 5740 5735 5732 5725 5719 5715 5711 5706 5701 5696 5692 5688 5683 5679 5676 5673 5669 5666 5663 5660 5658 5655 5651 5647 5642 5638 5634 5631 5627 5623 5621 5617 5612 5608 5604 5601 5597
5738 5741 5742 5742 5741 5741 5737 5732 5726 5720 5715 5710 5707 5702 5697 5693 5688 5683 5679 5676 5672 5669 5666 5663 5660 5657 5655 5651 5647 5643 5638 5634 5631 5627 5623 5619 5616 5612 5607 5603 5599 5596 5592
5730 5733 5736 5736 5734 5731 5728 5724 5718 5713 5709 5705 5702 5699 5694 5689 5684 5680 5677 5673 5669 5666 5663 5660 5657 5653 5651 5648 5643 5638 5633 5630 5627 5624 5620 5615 5612 5609 5603 5597 5594 5591 5588
5722 5724 5726 5726 5724 5721 5718 5714 5709 5705 5703 5701 5697 5693 5689 5684 5680 5676 5673 5669 5665 5662 5659 5656 5653 5650 5648 5644 5639 5634 5629 5626 5624 5620 5616 5612 5608 5605 5598 5593 5589 5586 5584
5710 5712 5713 5711 5709 5708 5708 5703 5699 5697 5696 5694 5690 5686 5682 5679 5675 5671 5667 5663 5659 5656 5653 5651 5648 5645 5642 5640 5635 5629 5624 5622 5620 5616 5613 5610 5605 5600 5594 5588 5585 5583 5580
5697 5699 5698 5696 5694 5695 5694 5691 5687 5688 5687 5685 5681 5678 5675 5672 5669 5664 5659 5655 5651 5648 5645 5642 5640 5639 5636 5633 5630 5625 5620 5617 5614 5613 5611 5607 5601 5595 5590 5585 5581 5577 5571
5682 5684 5683 5680 5678 5678 5679 5677 5675 5676 5675 5673 5669 5666 5664 5660 5658 5654 5650 5646 5642 5638 5637 5633 5632 5632 5630 5627 5623 5619 5615 5610 5606 5608 5606 5601 5595 5589 5584 5580 5576 5570 5566
5670 5670 5668 5665 5663 5663 5665 5664 5663 5663 5662 5659 5656 5653 5650 5647 5644 5641 5639 5635 5632 5628 5626 5623 5622 5622 5620 5618 5615 5612 5609 5605 5600 5598 5596 5592 5586 5581 5578 5574 5570 5566 5563
5655 5654 5651 5649 5648 5649 5649 5649 5649 5648 5646 5643 5641 5638 5636 5633 5630 5628 5626 5623 5621 5617 5614 5612 5610 5609 5609 5609 5605 5601 5599 5596 5593 5589 5585 5581 5578 5575 5571 5568 5564 5561 5557
5643 5641 5640 5638 5637 5636 5636 5635 5635 5634 5632 5629 5626 5623 5621 5618 5616 5614 5612 5610 5607 5604 5601 5598 5595 5595 5594 5593 5591 5588 5585 5582 5578 5573 5575 5575 5573 5571 5568 5564 5560 5556 5552